Location: Monrovia
(34.7865°N, 86.7139°W)
Time: 22:01:24
(UTC+00:00)

CZ-4C R/B - Pass Details

Date: 14 July 2020
Orbit: 632 x 1370 km, 63.4° (Epoch: 08 August)

Event Time Altitude Azimuth Distance (km) Brightness Sun altitude
Rises 05:32:02 0° 327° (NNW) 3,977 6.5 -33.4°
Reaches altitude 10° 05:34:35 10° 326° (NNW) 3,106 5.8 -33.4°
Enters shadow 05:42:00 78° 264° (W) 1,325 3.0 -33.6°
